• In Deutschland
  • Länderverzeichnis
  • Für 7 Tage
  • Wassertemperatur
  • Satellitenkarten
  • Wetterkarte
  • Widgets
  • user-avatar
    Anmelden

    Stündliche Wetter Mykhalkove

    Heute, 19 Juli, Donnerstag

    Zeit Temperatur Niederschläge Wind Luftdruck Luftfeuchtigkeit
    00:00 +18°C° 0 mm 2 m/S 731 mmHg 93%
    01:00 +18°C° 0 mm 2 m/S 731 mmHg 94%
    02:00 +18°C° 0 mm 2 m/S 731 mmHg 94%
    03:00 +18°C° 0 mm 2 m/S 731 mmHg 95%
    04:00 +18°C° 0 mm 2 m/S 731 mmHg 95%
    05:00 +17°C° 0 mm 2 m/S 731 mmHg 96%
    06:00 +19°C° 0 mm 2 m/S 731 mmHg 92%
    07:00 +21°C° 0 mm 3 m/S 732 mmHg 89%
    08:00 +22°C° 0 mm 3 m/S 732 mmHg 85%
    09:00 +23°C° 0,9 mm 4 m/S 732 mmHg 81%
    10:00 +25°C° 0,9 mm 4 m/S 732 mmHg 77%
    11:00 +26°C° 0,9 mm 4 m/S 732 mmHg 74%
    12:00 +27°C° 1 mm 5 m/S 732 mmHg 72%
    13:00 +27°C° 1 mm 5 m/S 732 mmHg 71%
    14:00 +28°C° 1 mm 5 m/S 733 mmHg 69%
    15:00 +28°C° 0,6 mm 5 m/S 733 mmHg 70%
    16:00 +27°C° 0,6 mm 5 m/S 733 mmHg 71%
    17:00 +27°C° 0,6 mm 5 m/S 733 mmHg 73%
    18:00 +26°C° 0,1 mm 5 m/S 733 mmHg 78%
    19:00 +25°C° 0,1 mm 4 m/S 733 mmHg 82%
    20:00 +22°C° 0,1 mm 4 m/S 733 mmHg 87%
    21:00 +22°C° 0 mm 4 m/S 733 mmHg 89%
    22:00 +21°C° 0 mm 4 m/S 733 mmHg 91%
    23:00 +20°C° 0 mm 4 m/S 734 mmHg 92%

    Morgen, 20 Juli, Freitag

    Zeit Temperatur Niederschläge Wind Luftdruck Luftfeuchtigkeit
    00:00 +20°C° 0 mm 4 m/S 734 mmHg 93%
    01:00 +19°C° 0 mm 4 m/S 734 mmHg 94%
    02:00 +19°C° 0 mm 4 m/S 734 mmHg 94%
    03:00 +19°C° 0 mm 4 m/S 734 mmHg 95%
    04:00 +18°C° 0 mm 4 m/S 734 mmHg 95%
    05:00 +18°C° 0 mm 4 m/S 734 mmHg 96%
    06:00 +19°C° 0 mm 5 m/S 734 mmHg 92%
    07:00 +20°C° 0 mm 5 m/S 734 mmHg 88%
    08:00 +21°C° 0 mm 6 m/S 735 mmHg 84%
    09:00 +22°C° 0 mm 6 m/S 735 mmHg 79%
    10:00 +23°C° 0 mm 6 m/S 735 mmHg 75%
    11:00 +24°C° 0 mm 6 m/S 735 mmHg 71%
    12:00 +26°C° 0,1 mm 6 m/S 735 mmHg 69%
    13:00 +27°C° 0,1 mm 6 m/S 735 mmHg 66%
    14:00 +27°C° 0,1 mm 6 m/S 735 mmHg 64%
    15:00 +27°C° 0,2 mm 6 m/S 734 mmHg 65%
    16:00 +27°C° 0,2 mm 6 m/S 734 mmHg 67%
    17:00 +27°C° 0,2 mm 6 m/S 734 mmHg 68%
    18:00 +24°C° 0 mm 6 m/S 735 mmHg 73%
    19:00 +23°C° 0 mm 5 m/S 735 mmHg 79%
    20:00 +22°C° 0 mm 4 m/S 735 mmHg 84%
    21:00 +21°C° 0 mm 4 m/S 735 mmHg 85%
    22:00 +20°C° 0 mm 4 m/S 735 mmHg 86%
    23:00 +20°C° 0 mm 4 m/S 735 mmHg 88%

    übermorgen, 21 Juli, Samstag

    Zeit Temperatur Niederschläge Wind Luftdruck Luftfeuchtigkeit
    00:00 +19°C° 0 mm 4 m/S 735 mmHg 88%
    01:00 +19°C° 0 mm 4 m/S 735 mmHg 89%
    02:00 +19°C° 0 mm 4 m/S 735 mmHg 89%
    03:00 +18°C° 0 mm 4 m/S 735 mmHg 90%
    04:00 +18°C° 0 mm 4 m/S 735 mmHg 90%
    05:00 +18°C° 0 mm 4 m/S 735 mmHg 91%
    06:00 +19°C° 0 mm 5 m/S 736 mmHg 87%
    07:00 +20°C° 0 mm 5 m/S 736 mmHg 84%
    08:00 +21°C° 0 mm 6 m/S 736 mmHg 80%
    09:00 +23°C° 0,2 mm 6 m/S 736 mmHg 76%
    10:00 +24°C° 0,2 mm 6 m/S 736 mmHg 72%
    11:00 +26°C° 0,2 mm 6 m/S 736 mmHg 69%
    12:00 +26°C° 0,7 mm 6 m/S 736 mmHg 67%
    13:00 +27°C° 0,7 mm 6 m/S 736 mmHg 66%
    14:00 +27°C° 0,7 mm 6 m/S 736 mmHg 65%
    15:00 +27°C° 0,2 mm 6 m/S 736 mmHg 65%
    16:00 +27°C° 0,2 mm 5 m/S 736 mmHg 66%
    17:00 +27°C° 0,2 mm 5 m/S 736 mmHg 66%
    18:00 +25°C° 0 mm 4 m/S 736 mmHg 71%
    19:00 +24°C° 0 mm 3 m/S 736 mmHg 76%
    20:00 +21°C° 0 mm 2 m/S 736 mmHg 81%
    21:00 +20°C° 0 mm 2 m/S 736 mmHg 83%
    22:00 +20°C° 0 mm 2 m/S 736 mmHg 85%
    23:00 +19°C° 0 mm 2 m/S 736 mmHg 87%

    22 Juli, Sonntag

    Zeit Temperatur Niederschläge Wind Luftdruck Luftfeuchtigkeit
    00:00 +18°C° 0 mm 2 m/S 736 mmHg 88%
    01:00 +18°C° 0 mm 2 m/S 736 mmHg 89%
    02:00 +18°C° 0 mm 2 m/S 736 mmHg 90%
    03:00 +17°C° 0 mm 2 m/S 736 mmHg 90%
    04:00 +17°C° 0 mm 2 m/S 736 mmHg 91%
    05:00 +17°C° 0 mm 2 m/S 736 mmHg 91%
    06:00 +19°C° 0 mm 2 m/S 736 mmHg 85%
    07:00 +20°C° 0 mm 2 m/S 736 mmHg 79%
    08:00 +23°C° 0 mm 2 m/S 736 mmHg 73%
    09:00 +24°C° 0 mm 2 m/S 736 mmHg 67%
    10:00 +25°C° 0 mm 2 m/S 736 mmHg 61%
    11:00 +27°C° 0 mm 2 m/S 736 mmHg 56%
    12:00 +27°C° 0 mm 2 m/S 736 mmHg 54%
    13:00 +28°C° 0 mm 1 m/S 736 mmHg 52%
    14:00 +28°C° 0 mm 1 m/S 735 mmHg 50%
    15:00 +28°C° 0 mm 1 m/S 735 mmHg 51%
    16:00 +28°C° 0 mm 1 m/S 735 mmHg 52%
    17:00 +28°C° 0 mm 1 m/S 735 mmHg 53%
    18:00 +26°C° 0,1 mm 1 m/S 735 mmHg 58%
    19:00 +25°C° 0,1 mm 1 m/S 735 mmHg 63%
    20:00 +23°C° 0,1 mm 1 m/S 735 mmHg 68%
    21:00 +23°C° 0 mm 2 m/S 735 mmHg 71%
    22:00 +21°C° 0 mm 2 m/S 735 mmHg 73%
    23:00 +20°C° 0 mm 2 m/S 735 mmHg 75%

    23 Juli, Montag

    Zeit Temperatur Niederschläge Wind Luftdruck Luftfeuchtigkeit
    00:00 +20°C° 0 mm 2 m/S 735 mmHg 76%
    01:00 +19°C° 0 mm 2 m/S 735 mmHg 77%
    02:00 +19°C° 0 mm 2 m/S 735 mmHg 77%
    03:00 +19°C° 0,3 mm 2 m/S 735 mmHg 78%
    04:00 +19°C° 0,3 mm 2 m/S 735 mmHg 79%
    05:00 +20°C° 0,3 mm 1 m/S 735 mmHg 79%
    06:00 +20°C° 0 mm 2 m/S 735 mmHg 76%
    07:00 +21°C° 0 mm 2 m/S 735 mmHg 72%
    08:00 +24°C° 0 mm 2 m/S 735 mmHg 69%
    09:00 +25°C° 0 mm 2 m/S 735 mmHg 66%
    10:00 +26°C° 0 mm 2 m/S 735 mmHg 62%
    11:00 +26°C° 0 mm 2 m/S 735 mmHg 59%
    12:00 +27°C° 0,3 mm 2 m/S 735 mmHg 57%
    13:00 +28°C° 0,3 mm 2 m/S 735 mmHg 55%
    14:00 +29°C° 0,3 mm 2 m/S 735 mmHg 52%
    15:00 +29°C° 0,4 mm 2 m/S 735 mmHg 53%
    16:00 +28°C° 0,4 mm 2 m/S 735 mmHg 54%
    17:00 +28°C° 0,4 mm 2 m/S 735 mmHg 55%
    18:00 +27°C° 0,1 mm 2 m/S 735 mmHg 62%
    19:00 +25°C° 0,1 mm 2 m/S 735 mmHg 68%
    20:00 +23°C° 0,1 mm 2 m/S 735 mmHg 75%
    21:00 +23°C° 0 mm 2 m/S 735 mmHg 78%
    22:00 +21°C° 0 mm 2 m/S 736 mmHg 81%
    23:00 +20°C° 0 mm 2 m/S 736 mmHg 84%

    24 Juli, Dienstag

    Zeit Temperatur Niederschläge Wind Luftdruck Luftfeuchtigkeit
    00:00 +20°C° 0 mm 2 m/S 736 mmHg 85%
    01:00 +19°C° 0 mm 2 m/S 736 mmHg 87%
    02:00 +19°C° 0 mm 2 m/S 736 mmHg 88%
    03:00 +18°C° 0 mm 2 m/S 736 mmHg 89%
    04:00 +18°C° 0 mm 2 m/S 737 mmHg 90%
    05:00 +18°C° 0 mm 2 m/S 737 mmHg 91%
    06:00 +19°C° 0 mm 2 m/S 737 mmHg 86%
    07:00 +21°C° 0 mm 3 m/S 737 mmHg 81%
    08:00 +22°C° 0 mm 3 m/S 738 mmHg 76%
    09:00 +23°C° 0 mm 4 m/S 738 mmHg 70%
    10:00 +26°C° 0 mm 4 m/S 738 mmHg 63%
    11:00 +27°C° 0 mm 4 m/S 738 mmHg 57%
    12:00 +27°C° 0 mm 4 m/S 738 mmHg 56%
    13:00 +28°C° 0 mm 4 m/S 738 mmHg 54%
    14:00 +28°C° 0 mm 4 m/S 737 mmHg 53%
    15:00 +28°C° 0 mm 4 m/S 737 mmHg 54%
    16:00 +28°C° 0 mm 4 m/S 738 mmHg 56%
    17:00 +27°C° 0 mm 4 m/S 738 mmHg 57%
    18:00 +26°C° 0 mm 3 m/S 738 mmHg 63%
    19:00 +24°C° 0 mm 3 m/S 738 mmHg 68%
    20:00 +23°C° 0 mm 2 m/S 738 mmHg 74%
    21:00 +21°C° 0 mm 2 m/S 738 mmHg 76%
    22:00 +20°C° 0 mm 3 m/S 738 mmHg 77%
    23:00 +20°C° 0 mm 3 m/S 738 mmHg 79%
    Mehr zeigen